Flag for Hungary Weather past 2 weeks in Debrecen, Hungary

Now
75 °F

Partly sunny.


Feels Like: 78 °F
Forecast: 60 / 78 °F
Wind: 9 mph from North

Location: Debrecen Airport

Current Time: May 24, 2015 at 4:07:54 PM

Latest Report: May 24, 2015 at 3:15 PM


Visibility: N/A

Pressure: 29.89 "Hg

Humidity: 50%

Dew point: 55 °F

Location of DebrecenLocation

Historic Weather in Debrecen — Graph

°F

Debrecen temperature yesterday

Maximum temperature yesterday: 68 °F (at 10:45 AM)
Minimum temperature yesterday: 54 °F (at 4:45 AM)
Average temperature yesterday: 62 °F

Past Weeks' High & Low Weather Summary

 TemperatureHumidityPressure
High84 °F (May 19, 4:45 PM)100% (May 10, 5:45 AM)30.33 "Hg (May 10, 5:45 AM)
Low41 °F (May 15, 5:15 AM)30% (May 19, 11:45 AM)29.71 "Hg (May 14, 2:45 PM)
Average65 °F61%30.00 "Hg
* Reported May 9 2:15 PM — May 24 2:45 PM, Debrecen, Weather by CustomWeather, © 2015

Note: Actual official high and low records may vary slightly from our data, if they occured in-between our weather recording intervals... More about our weather records

Advertising

Debrecen weather history for previous 24 hours

 ConditionsComfort  
Time TempWeatherWind HumidityBarometerVisibility
2:45 PM
Sun, May 24
73 °FScattered clouds.9 mph53%29.92 "HgN/A
2:15 PM75 °FBroken clouds.8 mph54%29.92 "HgN/A
1:45 PM73 °FBroken clouds.8 mph53%29.92 "HgN/A
1:15 PM72 °FBroken clouds.9 mph61%29.92 "HgN/A
12:45 PM72 °FBroken clouds.9 mph61%29.92 "HgN/A
12:15 PM72 °FBroken clouds.9 mph61%29.95 "HgN/A
11:45 AM72 °FPartly sunny.9 mph61%29.95 "HgN/A
11:15 AM70 °FScattered clouds.9 mph64%29.95 "HgN/A
10:45 AM68 °FPassing clouds.9 mph69%29.95 "HgN/A
10:15 AM68 °FPassing clouds.10 mph69%29.95 "HgN/A
9:45 AM66 °FPassing clouds.9 mph73%29.95 "HgN/A
9:15 AM64 °FPassing clouds.10 mph73%29.95 "HgN/A
8:45 AM63 °FPassing clouds.8 mph77%29.95 "HgN/A
8:15 AM61 °FPassing clouds.10 mph83%29.95 "HgN/A
7:45 AM59 °FPassing clouds.12 mph82%29.95 "HgN/A
7:15 AM57 °FSunny.10 mph88%29.95 "Hg10 mi
6:45 AM55 °FSunny.9 mph94%29.92 "Hg10 mi
6:15 AM54 °FSunny.5 mph100%29.92 "Hg10 mi
5:45 AM52 °FClear.3 mph100%29.92 "Hg10 mi
5:15 AM52 °FClear.5 mph94%29.92 "Hg10 mi
4:45 AM52 °FClear.3 mph94%29.92 "Hg10 mi
4:15 PM
Sat, May 23
63 °FMostly cloudy.6 mph94%29.92 "HgN/A
Weather by CustomWeather, © 2015

See weather overviewHow to use our weather pages